#timestamp,LO_Frequency,Hit,Temp,Hum 
1479034815.1,286046968.8,N,0.0,0.0
1479034816.0,286046968.8,N,0.0,0.0
1479034835.8,286046966.3,N,0.0,0.0
1479034855.6,286046966.9,N,0.0,0.0
1479034875.5,286046967.4,N,0.0,0.0
1479034895.3,286046967.2,N,0.0,0.0
1479034915.2,286046966.8,N,0.0,0.0
1479034935.9,286046964.9,N,0.0,0.0
1479034955.7,286046965.3,N,0.0,0.0
1479034975.6,286046965.5,N,0.0,0.0
1479034995.4,286046965.4,N,0.0,0.0
1479035015.2,286046965.2,N,0.0,0.0
1479035035.1,286046965.2,N,0.0,0.0
1479035036.0,286046965.2,N,0.0,0.0
1479035055.8,286046965.0,N,0.0,0.0
1479035075.7,286046964.7,N,0.0,0.0
1479035095.5,286046964.6,N,0.0,0.0
1479035115.3,286046967.5,N,0.0,0.0
1479035135.2,286046964.5,N,0.0,0.0
1479035155.0,286046967.2,N,0.0,0.0
1479035155.9,286046967.2,N,0.0,0.0
1479035175.8,286046966.4,N,0.0,0.0
1479035195.6,286046967.1,N,0.0,0.0
1479035215.4,286046967.6,N,0.0,0.0
1479035235.3,286046964.6,N,0.0,0.0
1479035255.1,286046964.7,N,0.0,0.0
1479035275.8,286046965.6,N,0.0,0.0
1479035295.7,286046963.5,N,0.0,0.0
1479035315.5,286046963.8,N,0.0,0.0
1479035335.3,286046964.1,N,0.0,0.0
1479035355.2,286046963.5,N,0.0,0.0
1479035375.0,286046963.1,N,0.0,0.0
1479035375.9,286046963.1,N,0.0,0.0
1479035395.8,286046963.6,N,0.0,0.0
1479035415.6,286046963.2,N,0.0,0.0
1479035435.4,286046963.2,N,0.0,0.0
1479035455.3,286046967.4,N,0.0,0.0
1479035475.1,286046962.9,N,0.0,0.0
1479035495.9,286046967.4,N,0.0,0.0
1479035515.7,286046967.2,N,0.0,0.0
1479035535.5,286046967.5,N,0.0,0.0
1479035555.4,286046970.4,N,0.0,0.0
1479035575.2,286046969.7,N,0.0,0.0
1479035595.0,286046973.5,N,0.0,0.0
1479035595.9,286046973.5,N,0.0,0.0
1479035615.8,286046972.9,N,0.0,0.0
1479035635.6,286046974.3,N,0.0,0.0
1479035655.5,286046978.5,N,0.0,0.0
1479035675.3,286046977.5,N,0.0,0.0
1479035695.1,286046979.9,N,0.0,0.0
1479035715.9,286046982.0,N,0.0,0.0
1479035735.7,286046981.7,N,0.0,0.0
1479035755.5,286046980.9,N,0.0,0.0
1479035775.4,286046983.6,N,0.0,0.0
1479035795.2,286046983.3,N,0.0,0.0
1479035815.1,286046983.5,N,0.0,0.0
1479035816.0,286046983.5,N,0.0,0.0
1479035835.8,286046982.4,N,0.0,0.0
1479035855.6,286046984.8,N,0.0,0.0
1479035875.5,286046984.8,N,0.0,0.0
1479035895.3,286046984.6,N,0.0,0.0
1479035915.1,286046985.0,N,0.0,0.0
1479035935.9,286046984.8,N,0.0,0.0
1479035955.7,286046984.7,N,0.0,0.0
1479035975.5,286046984.3,N,0.0,0.0
1479035995.4,286046983.8,N,0.0,0.0
1479036015.2,286046985.2,N,0.0,0.0
1479036035.1,286046984.4,N,0.0,0.0
1479036036.0,286046984.4,N,0.0,0.0
1479036055.8,286046982.1,N,0.0,0.0
1479036075.6,286046985.2,N,0.0,0.0
1479036095.5,286046982.2,N,0.0,0.0
1479036115.3,286046984.7,N,0.0,0.0
1479036135.1,286046984.0,N,0.0,0.0
1479036155.9,286046984.8,N,0.0,0.0
1479036175.7,286046984.9,N,0.0,0.0
1479036195.6,286046984.6,N,0.0,0.0
1479036215.4,286046984.6,N,0.0,0.0
1479036235.2,286046982.2,N,0.0,0.0
1479036255.1,286046985.1,N,0.0,0.0
1479036256.0,286046985.1,N,0.0,0.0
1479036275.8,286046983.0,N,0.0,0.0
1479036295.7,286046980.5,N,0.0,0.0
1479036315.5,286046981.0,N,0.0,0.0
1479036335.3,286046981.3,N,0.0,0.0
1479036355.2,286046981.5,N,0.0,0.0
1479036375.9,286046979.2,N,0.0,0.0
1479036395.7,286046979.3,N,0.0,0.0
1479036415.6,286046979.1,N,0.0,0.0
1479036435.4,286046979.2,N,0.0,0.0
1479036455.3,286046982.0,N,0.0,0.0
1479036475.1,286046979.0,N,0.0,0.0
1479036476.0,286046979.0,N,0.0,0.0
1479036495.8,286046981.7,N,0.0,0.0
1479036515.7,286046980.9,N,0.0,0.0
1479036535.5,286046983.5,N,0.0,0.0
1479036555.3,286046981.2,N,0.0,0.0
1479036575.2,286046980.9,N,0.0,0.0
1479036595.0,286046983.6,N,0.0,0.0
1479036595.9,286046983.6,N,0.0,0.0
1479036615.8,286046980.8,N,0.0,0.0
1479036635.6,286046981.2,N,0.0,0.0
1479036655.4,286046980.5,N,0.0,0.0
1479036675.3,286046980.8,N,0.0,0.0
1479036695.1,286046981.2,N,0.0,0.0
1479036715.8,286046981.4,N,0.0,0.0
1479036735.7,286046981.6,N,0.0,0.0
1479036755.5,286046983.4,N,0.0,0.0
1479036775.4,286046981.2,N,0.0,0.0
1479036795.2,286046981.0,N,0.0,0.0
1479036815.0,286046981.4,N,0.0,0.0
1479036815.9,286046981.4,N,0.0,0.0
1479036835.8,286046981.6,N,0.0,0.0
1479036855.6,286046981.0,N,0.0,0.0
1479036875.4,286046981.1,N,0.0,0.0
1479036895.3,286046981.1,N,0.0,0.0
1479036915.1,286046981.8,N,0.0,0.0
1479036935.9,286046981.7,N,0.0,0.0
1479036955.7,286046979.2,N,0.0,0.0
1479036975.5,286046980.4,N,0.0,0.0
1479036995.4,286046980.4,N,0.0,0.0
1479037015.2,286046980.3,N,0.0,0.0
1479037035.0,286046977.4,N,0.0,0.0
1479037035.9,286046977.4,N,0.0,0.0
1479037055.8,286046980.4,N,0.0,0.0
1479037075.6,286046977.9,N,0.0,0.0
1479037095.5,286046976.2,N,0.0,0.0
1479037115.3,286046975.9,N,0.0,0.0
1479037135.1,286046975.7,N,0.0,0.0
1479037155.9,286046975.8,N,0.0,0.0
1479037175.7,286046978.4,N,0.0,0.0
1479037195.5,286046977.0,N,0.0,0.0
1479037215.4,286046976.2,N,0.0,0.0
1479037235.2,286046974.4,N,0.0,0.0
1479037255.1,286046974.7,N,0.0,0.0
1479037256.0,286046974.7,N,0.0,0.0
1479037275.8,286046974.7,N,0.0,0.0
1479037295.6,286046974.8,N,0.0,0.0
1479037315.5,286046975.2,N,0.0,0.0
1479037335.3,286046971.6,N,0.0,0.0
1479037355.1,286046968.9,N,0.0,0.0
1479037375.9,286046965.8,N,0.0,0.0
1479037395.7,286046959.9,N,0.0,0.0
1479037415.6,286046958.0,N,0.0,0.0
1479037435.4,286046956.4,N,0.0,0.0
1479037455.2,286046954.7,N,0.0,0.0
1479037475.1,286046954.4,N,0.0,0.0
1479037476.0,286046954.4,N,0.0,0.0
1479037495.8,286046951.7,N,0.0,0.0
1479037515.6,286046951.9,N,0.0,0.0
1479037535.5,286046952.6,N,0.0,0.0
1479037555.3,286046951.9,N,0.0,0.0
1479037575.2,286046953.1,N,0.0,0.0
1479037595.9,286046950.3,N,0.0,0.0
1479037615.7,286046950.5,N,0.0,0.0
1479037635.6,286046951.3,N,0.0,0.0
1479037655.4,286046951.2,N,0.0,0.0
1479037675.2,286046951.5,N,0.0,0.0
1479037695.1,286046950.9,N,0.0,0.0
1479037696.0,286046950.9,N,0.0,0.0
1479037715.8,286046948.9,N,0.0,0.0
1479037735.7,286046949.2,N,0.0,0.0
1479037755.5,286046949.1,N,0.0,0.0
1479037775.3,286046949.5,N,0.0,0.0
1479037795.2,286046949.9,N,0.0,0.0
1479037815.9,286046947.6,N,0.0,0.0
1479037835.7,286046947.2,N,0.0,0.0
1479037855.6,286046947.4,N,0.0,0.0
1479037875.4,286046951.5,N,0.0,0.0
1479037895.3,286046948.6,N,0.0,0.0
1479037915.1,286046951.3,N,0.0,0.0
1479037916.0,286046951.3,N,0.0,0.0
1479037935.8,286046951.2,N,0.0,0.0
1479037955.7,286046952.8,N,0.0,0.0
1479037975.5,286046951.0,N,0.0,0.0
1479037995.3,286046949.8,N,0.0,0.0
1479038015.2,286046949.5,N,0.0,0.0
1479038035.0,286046948.9,N,0.0,0.0
1479038035.9,286046948.9,N,0.0,0.0
1479038055.8,286046951.6,N,0.0,0.0
1479038075.6,286046951.6,N,0.0,0.0
1479038095.4,286046948.9,N,0.0,0.0
1479038115.3,286046951.1,N,0.0,0.0
1479038135.1,286046948.7,N,0.0,0.0
1479038155.8,286046946.9,N,0.0,0.0
1479038175.7,286046949.1,N,0.0,0.0
1479038195.5,286046949.8,N,0.0,0.0
1479038215.4,286046948.3,N,0.0,0.0
1479038235.2,286046945.9,N,0.0,0.0
1479038255.0,286046946.1,N,0.0,0.0
1479038255.9,286046946.1,N,0.0,0.0
1479038275.8,286046947.5,N,0.0,0.0
1479038295.6,286046949.9,N,0.0,0.0
1479038315.4,286046947.0,N,0.0,0.0
1479038335.3,286046945.3,N,0.0,0.0
1479038355.1,286046946.2,N,0.0,0.0
1479038375.9,286046945.9,N,0.0,0.0
1479038395.7,286046946.7,N,0.0,0.0
